Date,TemperatureHighF,TemperatureAvgF,TemperatureLowF,DewpointHighF,DewpointAvgF,DewpointLowF,HumidityHigh,HumidityAvg,HumidityLow,PressureMaxIn,PressureMinIn,WindSpeedMaxMPH,WindSpeedAvgMPH,GustSpeedMaxMPH,PrecipitationSumIn
2013-4-1,74,62,54,56,44,35,93,57,27,29.95,29.81,10,3,0,0.00
2013-4-2,70,58,46,37,31,22,61,37,19,30.12,29.95,7,2,0,0.00
2013-4-3,60,54,48,31,24,18,39,31,24,30.23,30.07,6,3,0,0.00
2013-4-4,54,43,37,36,32,26,92,69,40,30.22,29.98,7,4,0,0.00
2013-4-5,66,50,36,46,37,26,94,67,22,30.04,29.91,7,2,0,0.00
2013-4-6,71,58,40,40,35,31,84,49,23,30.20,30.04,6,1,0,0.00
2013-4-7,73,61,44,49,44,36,83,56,36,30.22,30.07,6,2,0,0.00
2013-4-8,77,65,52,56,52,47,87,65,42,30.14,30.03,7,2,0,0.00
2013-4-9,83,70,54,59,54,50,88,61,39,30.17,30.06,6,1,0,0.00
2013-4-10,85,73,60,61,58,55,85,62,41,30.08,29.91,6,2,0,0.00
2013-4-11,81,69,60,66,60,56,91,74,51,29.93,29.67,7,2,0,0.00
2013-4-12,78,68,60,66,53,36,95,64,26,29.80,29.62,11,4,0,0.00
2013-4-13,79,63,45,45,40,36,87,48,22,29.98,29.80,5,1,0,0.00
2013-4-14,70,62,53,53,44,36,81,53,36,30.05,29.93,5,1,0,0.00
2013-4-15,70,61,55,60,56,52,95,84,62,30.17,29.93,4,1,0,0.00
2013-4-16,81,69,60,62,58,55,85,71,48,30.26,30.14,5,1,0,0.00
2013-4-17,84,68,62,64,61,58,94,79,50,30.20,30.08,6,2,0,0.00
2013-4-18,80,68,59,65,61,58,96,79,48,30.11,29.93,6,2,0,0.00
2013-4-19,71,63,50,65,59,47,93,87,79,29.93,29.74,9,4,0,0.00
2013-4-20,65,54,42,48,34,28,93,51,29,30.24,29.90,6,2,0,0.00
2013-4-21,65,55,44,41,36,31,79,49,31,30.39,30.24,7,3,0,0.00
2013-4-22,64,54,46,42,38,34,76,56,36,30.37,30.19,7,3,0,0.00
2013-4-23,74,59,46,50,41,33,68,52,35,30.25,30.07,4,2,0,0.00
2013-4-24,74,62,51,60,54,48,93,76,52,30.11,29.99,8,2,0,0.00
2013-4-25,75,64,52,58,43,28,93,52,24,30.24,30.03,5,2,0,0.00
2013-4-26,73,62,50,45,35,28,54,37,27,30.39,30.24,8,2,0,0.00
2013-4-27,63,57,54,55,51,41,93,82,46,30.32,30.22,3,1,0,0.00
2013-4-28,54,53,51,53,50,-100,96,94,90,30.23,30.03,4,1,0,0.00
2013-4-29,74,61,53,61,56,52,97,84,59,30.05,29.91,6,1,0,0.00
2013-4-30,77,64,53,62,58,52,96,80,53,30.12,29.95,7,2,0,0.00